Flag for U.S.A. Weather past 2 weeks in Monterey, California, U.S.A.

Now
58 °F

Overcast.


Feels Like: 56 °F
Forecast: 53 / 61 °F
Wind: 8 mph from West

Location: Monterey Peninsula Airport

Current Time: May 27, 2015 at 4:09:27 PM

Latest Report: May 27, 2015 at 2:54 PM


Visibility: 10 mi

Pressure: 30.09 "Hg

Humidity: 75%

Dew point: 50 °F

Location of MontereyLocation

Historic Weather in Monterey — Graph

°F

Monterey temperature yesterday

Maximum temperature yesterday: 61 °F (at 2:54 PM)
Minimum temperature yesterday: 53 °F (at 2:54 AM)
Average temperature yesterday: 56 °F

Past Weeks' High & Low Weather Summary

 TemperatureHumidityPressure
High66 °F (May 22, 2:54 PM)94% (May 23, 8:02 AM)30.19 "Hg (May 23, 8:02 AM)
Low49 °F (May 15, 2:54 AM)43% (May 13, 12:54 PM)29.84 "Hg (May 14, 4:54 PM)
Average56 °F74%30.05 "Hg
* Reported May 12 2:54 PM — May 27 2:54 PM, Monterey, Weather by CustomWeather, © 2015

Note: Actual official high and low records may vary slightly from our data, if they occured in-between our weather recording intervals... More about our weather records

Advertising

Monterey weather history for previous 24 hours

 ConditionsComfort  
Time TempWeatherWind HumidityBarometerVisibility
2:54 PM
Wed, May 27
58 °FOvercast.8 mph75%30.09 "Hg10 mi
1:54 PM62 °FPartly sunny.10 mph62%30.08 "Hg10 mi
12:54 PM61 °FPartly sunny.12 mph65%30.09 "Hg10 mi
11:54 AM58 °FOvercast.8 mph70%30.09 "Hg10 mi
10:54 AM56 °FOvercast.7 mph77%30.09 "Hg10 mi
9:54 AM56 °FOvercast.5 mph77%30.09 "Hg10 mi
8:54 AM55 °FOvercast.3 mph77%30.09 "Hg10 mi
7:54 AM55 °FOvercast.No wind77%30.08 "Hg10 mi
6:54 AM54 °FOvercast.3 mph80%30.07 "Hg10 mi
5:54 AM54 °FOvercast.3 mph80%30.06 "Hg10 mi
4:54 AM55 °FOvercast.3 mph77%30.05 "Hg10 mi
3:54 AM55 °FOvercast.No wind77%30.05 "Hg10 mi
2:54 AM55 °FOvercast.No wind77%30.05 "Hg10 mi
1:54 AM55 °FOvercast.5 mph77%30.06 "Hg10 mi
12:54 AM56 °FOvercast.3 mph77%30.07 "Hg10 mi
11:54 PM
Tue, May 26
56 °FOvercast.6 mph75%30.07 "Hg10 mi
10:54 PM56 °FOvercast.No wind72%30.07 "Hg10 mi
9:54 PM56 °FOvercast.5 mph75%30.06 "Hg10 mi
8:54 PM56 °FOvercast.5 mph77%30.06 "Hg10 mi
7:54 PM56 °FOvercast.8 mph75%30.06 "Hg10 mi
6:54 PM57 °FOvercast.8 mph72%30.05 "Hg10 mi
5:54 PM58 °FPartly sunny.9 mph72%30.05 "Hg10 mi
4:54 PM61 °FScattered clouds.10 mph65%30.05 "Hg10 mi
Weather by CustomWeather, © 2015

See weather overviewHow to use our weather pages